Wetbulb
57.54 57.69 57.83 58.06 58.25 58.47 58.67 58.80 59.07 59.45 59.80 60.23 60.46 60.47 60.34 60.67 59.54 58.39 55.48 58.28 60.73 65.56 64.16 60.77 58.53 57.99 58.00 55.90 55.52 55.98 48.68 47.70 49.63 50.48 51.32 53.74 51.89 54.91 55.63 53.79 54.87 55.84 55.74 56.99 58.56
57.01 57.35 57.52 57.81 58.06 58.27 58.48 58.77 59.07 59.45 59.88 60.31 60.16 60.06 60.05 60.47 58.86 56.17 59.28 64.85 66.28 67.54 59.64 59.28 55.96 56.17 54.18 54.21 53.70 51.35 48.92 49.60 52.37 52.52 51.67 52.74 52.02 52.76 52.37 53.11 53.27 54.38 56.51 57.27 57.73
56.70 57.04 57.40 57.55 57.73 58.11 58.31 58.73 59.08 59.57 60.11 59.90 59.80 59.75 60.06 60.15 57.25 55.19 62.49 66.73 67.54 65.85 60.51 58.81 57.00 55.90 53.48 54.58 53.27 52.62 49.34 52.29 52.29 53.02 52.90 52.08 51.51 53.00 51.38 50.50 53.18 52.66 53.63 55.07 55.93
56.55 56.84 57.05 57.28 57.58 57.83 58.19 58.57 58.86 59.26 59.81 59.64 59.43 59.62 60.62 58.76 49.75 56.39 67.03 67.73 67.75 62.93 59.38 56.44 55.69 53.59 52.90 51.22 52.88 50.03 52.03 52.24 52.43 52.37 51.54 50.92 52.74 50.80 51.71 52.06 54.15 54.12 54.68 55.07 55.22
56.31 56.54 56.73 56.88 57.27 57.53 58.01 58.35 58.53 58.67 59.06 59.10 59.55 60.19 59.75 55.56 53.41 58.01 68.56 67.06 61.00 59.45 57.75 55.75 54.44 53.45 51.11 51.25 52.15 51.08 51.13 51.56 51.98 51.49 51.56 52.34 50.61 51.32 51.46 53.78 54.83 55.26 55.28 55.35 55.55
56.06 56.18 56.20 56.57 56.96 57.41 57.93 57.98 57.83 57.99 58.40 59.16 59.93 59.43 57.87 53.42 57.92 58.84 58.65 58.75 58.46 57.73 56.46 56.37 54.69 55.33 52.54 51.57 51.22 52.41 51.05 51.66 51.67 52.00 51.90 50.60 51.07 51.50 52.46 54.63 53.88 54.65 54.74 55.54 56.02
55.99 55.79 56.04 56.43 56.86 57.47 57.84 57.48 57.05 57.62 58.71 59.89 61.00 59.71 58.37 53.42 58.75 59.01 59.02 57.55 57.73 57.36 55.22 56.44 56.28 53.63 53.77 51.45 52.49 51.87 48.59 51.04 51.36 51.74 50.76 51.89 48.90 49.94 53.30 54.28 53.33 54.21 55.02 55.49 56.35
55.91 55.78 55.75 56.31 56.78 57.24 58.06 57.54 56.99 58.06 59.28 60.59 60.93 59.60 54.20 59.12 60.54 58.75 58.93 57.63 57.82 57.64 56.71 56.90 57.61 55.58 53.86 54.71 51.48 49.54 50.12 47.06 51.07 51.91 51.86 50.67 46.04 51.57 53.85 53.39 52.75 53.84 54.45 55.01 57.02
56.02 55.95 55.78 56.19 56.62 57.22 57.29 56.80 57.75 59.19 60.61 60.46 59.22 59.36 53.67 61.25 56.86 57.91 59.03 55.62 56.60 56.97 56.86 55.74 56.39 54.57 53.32 49.70 48.92 49.97 46.26 47.01 48.46 52.35 51.15 50.41 47.91 52.29 54.23 53.73 53.32 54.17 54.60 54.88 57.12
55.88 55.91 55.98 56.34 56.59 56.99 56.43 56.34 58.24 59.14 60.87 58.55 58.88 55.55 55.39 53.55 55.94 56.85 58.47 57.66 55.17 55.70 55.34 54.37 53.48 51.09 50.74 49.36 43.48 45.44 45.90 47.06 46.66 50.50 51.13 49.53 49.21 52.33 53.92 53.79 53.69 54.24 54.03 55.89 56.59
55.60 55.87 56.16 56.53 56.84 56.34 56.98 59.63 57.22 56.79 58.81 54.85 54.81 54.83 54.25 56.59 57.17 56.06 56.89 56.40 55.92 55.22 50.81 52.46 49.22 48.21 49.21 49.73 49.23 48.53 47.49 47.14 49.65 51.79 50.08 49.09 49.31 50.61 52.87 53.64 53.43 53.73 54.54 55.93 56.49
55.06 55.47 55.98 56.45 56.57 56.19 57.67 58.59 57.10 58.53 53.75 56.09 55.88 55.67 56.57 57.26 52.94 54.40 57.23 53.59 52.71 50.80 51.71 51.20 48.62 50.87 50.27 50.02 49.04 48.79 47.68 47.57 49.74 51.49 49.47 48.55 48.07 50.85 52.67 53.07 53.55 53.98 54.44 54.91 56.03
54.37 54.98 55.51 56.06 55.66 57.25 60.61 57.22 60.04 59.65 54.66 54.04 54.07 53.52 53.77 55.91 52.92 53.45 55.14 54.20 51.72 49.66 50.06 48.14 50.31 51.38 49.15 48.67 48.31 48.49 47.26 46.71 46.40 48.92 49.68 48.53 47.04 49.31 51.89 53.01 53.94 54.79 55.25 55.66 56.25
53.86 54.41 55.26 54.94 55.94 60.63 59.34 58.65 60.86 62.03 51.38 50.55 50.63 53.11 54.52 54.75 51.46 55.12 55.79 53.07 51.37 48.79 49.64 49.02 51.98 49.36 48.74 48.15 49.21 45.58 49.11 48.11 46.89 45.58 41.79 49.14 40.94 48.67 50.06 50.54 51.98 53.49 54.41 55.09 55.97
53.39 54.57 55.08 53.58 59.88 57.57 57.55 60.65 62.05 61.30 43.85 50.53 51.16 57.61 55.65 52.42 53.32 53.31 55.84 53.68 49.58 49.84 49.89 48.53 48.90 48.48 47.58 47.95 49.72 46.52 49.85 48.09 47.90 46.07 45.80 45.80 43.03 46.83 49.47 47.89 49.57 52.45 53.95 54.29 54.77
53.16 54.35 54.07 60.36 61.72 61.66 61.94 61.21 61.98 50.45 42.82 49.17 52.77 51.22 50.60 51.58 52.05 53.93 53.86 55.40 54.53 50.73 50.96 50.00 52.85 50.36 49.76 50.43 50.00 50.59 48.57 48.31 47.69 46.40 40.94 44.32 42.57 42.66 45.40 47.99 49.89 52.17 52.68 53.47 54.59
52.65 53.19 55.67 61.13 58.77 62.97 62.46 58.15 49.76 45.94 54.48 49.56 49.05 50.32 49.86 49.97 50.91 51.29 51.21 50.49 48.87 45.88 47.18 50.26 50.38 51.66 51.22 48.19 50.45 49.16 45.65 39.68 38.26 38.90 38.06 44.91 41.85 43.87 48.82 50.19 50.39 50.65 52.39 53.97 55.49
51.36 50.92 59.09 60.58 63.30 62.56 60.33 53.68 45.02 50.56 49.03 51.75 50.30 50.06 48.28 50.70 50.19 50.39 49.79 48.59 51.94 49.80 47.17 45.40 43.96 49.40 51.48 48.47 46.45 46.47 45.80 39.73 33.26 34.84 37.10 44.00 39.85 41.27 49.45 50.99 51.79 51.76 52.27 52.31 52.14
50.04 63.33 62.58 64.12 63.27 61.95 56.25 48.12 48.86 50.34 51.29 49.57 50.16 47.08 47.83 49.88 49.40 49.80 49.60 49.26 50.68 50.88 45.53 44.42 44.99 51.82 51.52 51.73 49.18 45.33 42.93 47.73 41.64 42.15 38.70 41.18 44.37 47.91 48.86 48.27 50.03 50.69 51.24 51.06 52.07
58.91 63.23 61.19 62.17 63.94 60.35 53.93 47.67 51.31 52.64 51.91 50.93 46.34 49.77 47.36 49.23 48.13 48.91 48.63 51.28 49.73 51.36 52.36 48.35 41.95 49.33 49.64 50.37 50.26 48.31 49.41 41.36 42.23 33.57 31.75 38.10 39.41 40.17 44.89 45.68 48.22 48.99 49.62 51.05 51.73
60.66 58.84 59.97 61.02 61.98 56.63 51.18 52.20 52.64 53.34 52.57 50.43 49.26 48.92 49.09 48.47 49.21 47.90 48.20 50.49 51.34 51.11 51.34 49.25 46.65 46.09 49.10 46.26 45.30 45.35 43.73 44.37 43.76 40.97 34.61 32.54 36.82 46.52 46.56 47.39 48.09 49.42 50.04 51.02 51.16
60.19 52.88 59.36 60.16 53.41 55.95 51.41 51.84 47.76 51.78 53.27 51.80 51.51 50.45 49.10 49.70 48.28 48.19 47.59 50.37 52.60 51.02 46.31 49.61 46.57 40.55 43.25 48.20 49.05 46.63 44.17 44.09 39.57 36.87 39.67 38.05 37.14 48.32 48.12 48.55 49.47 49.81 50.54 51.41 51.97
55.76 55.49 60.02 59.10 49.68 51.06 53.27 51.44 51.64 50.76 51.39 50.77 50.06 51.04 52.14 49.13 46.26 49.01 49.42 52.13 51.80 49.81 47.66 48.26 42.90 37.43 39.72 45.51 47.76 45.17 46.47 45.77 45.39 45.09 37.81 34.83 36.98 48.23 48.74 49.27 50.50 49.16 49.46 49.92 50.98
56.00 51.13 55.09 55.98 55.00 51.21 50.25 49.80 49.45 52.22 50.42 50.72 50.28 51.31 49.70 48.42 50.61 47.85 48.26 51.23 51.60 50.06 48.90 47.33 42.38 39.46 35.39 39.54 44.03 41.85 43.32 44.19 43.45 39.70 38.12 38.22 40.10 44.41 47.01 47.87 48.90 49.16 49.47 49.71 50.17
56.24 52.47 53.14 48.66 51.09 50.94 50.98 50.08 48.61 48.22 51.39 51.25 49.88 49.45 48.70 45.86 47.46 47.01 48.85 48.98 50.18 49.20 49.52 48.14 41.50 43.41 43.63 43.88 43.56 42.74 42.87 43.42 41.72 41.97 38.43 40.42 40.47 44.10 46.75 47.52 48.48 49.42 49.36 48.52 48.13
52.27 51.17 52.79 51.14 53.01 50.47 48.25 48.76 48.31 49.49 48.76 48.25 47.71 49.57 49.23 45.72 46.60 45.13 47.35 47.43 46.35 49.14 47.46 48.80 41.47 43.05 40.54 43.77 44.27 42.27 43.28 42.74 42.62 42.82 42.51 42.74 41.91 48.12 49.63 49.68 48.61 48.05 47.86 47.18 47.50
56.66 56.63 53.48 50.73 51.50 49.63 49.32 49.04 47.70 48.59 49.56 49.74 49.53 47.99 46.69 48.87 50.73 50.67 49.54 48.66 47.76 46.09 45.73 46.10 43.93 39.96 35.70 42.37 41.50 37.18 42.79 42.89 43.18 44.37 43.66 39.57 43.96 48.00 46.99 46.78 47.16 47.43 47.46 46.82 47.39
MSLP
1016.00 1015.75 1015.54 1015.32 1015.06 1014.80 1014.55 1014.33 1014.08 1013.83 1013.55 1013.20 1012.83 1012.69 1012.44 1012.17 1011.37 1011.09 1009.60 1009.88 1009.35 1009.18 1009.29 1007.88 1006.32 1005.63 1005.17 1004.18 1004.09 1003.51 1003.30 1001.84 1000.77 1000.41 1001.47 1002.32 1002.79 1002.82 1003.55 1003.55 1003.31 1003.74 1004.01 1004.45 1004.55
1016.10 1015.81 1015.53 1015.28 1015.02 1014.78 1014.54 1014.30 1014.06 1013.81 1013.51 1013.13 1012.72 1012.57 1012.48 1012.29 1011.13 1009.24 1009.49 1009.34 1009.18 1009.00 1008.40 1006.83 1005.27 1004.93 1004.31 1003.60 1003.56 1003.25 1002.39 1002.15 1002.25 1002.09 1002.36 1002.78 1003.62 1003.41 1003.55 1003.14 1003.30 1003.70 1004.11 1004.52 1004.65
1016.10 1015.83 1015.55 1015.29 1015.02 1014.78 1014.54 1014.30 1014.05 1013.75 1013.38 1012.98 1012.65 1012.49 1012.44 1012.11 1010.26 1008.77 1009.16 1008.97 1008.78 1008.59 1007.85 1006.13 1005.07 1004.32 1003.45 1003.11 1003.19 1002.83 1003.03 1002.78 1003.26 1003.89 1003.75 1003.52 1003.85 1003.98 1003.89 1003.61 1004.01 1004.41 1004.87 1005.01 1005.19
1016.06 1015.80 1015.55 1015.29 1015.04 1014.80 1014.55 1014.31 1014.05 1013.71 1013.30 1012.84 1012.37 1012.41 1012.00 1011.10 1008.96 1008.77 1008.92 1008.57 1008.21 1008.14 1007.39 1005.80 1004.90 1003.87 1003.06 1003.06 1003.46 1003.09 1003.70 1003.74 1003.87 1004.30 1004.28 1004.17 1004.23 1004.23 1004.09 1004.23 1004.60 1005.11 1005.31 1005.49 1005.26
1016.04 1015.73 1015.50 1015.25 1015.00 1014.77 1014.54 1014.29 1014.01 1013.70 1013.31 1012.84 1012.40 1012.36 1011.50 1009.67 1008.10 1008.55 1008.62 1008.09 1007.52 1006.71 1006.42 1005.21 1004.27 1003.75 1003.31 1003.60 1003.54 1003.37 1003.95 1004.29 1004.57 1004.76 1004.81 1004.90 1004.84 1004.42 1004.38 1004.28 1004.90 1005.34 1005.45 1005.43 1005.46
1016.06 1015.77 1015.50 1015.27 1015.00 1014.73 1014.46 1014.20 1013.89 1013.51 1013.07 1012.72 1012.62 1012.36 1011.38 1008.87 1007.60 1007.71 1007.68 1007.01 1006.37 1005.64 1005.38 1004.87 1004.38 1004.26 1003.86 1003.91 1003.94 1004.06 1004.16 1004.15 1004.54 1004.46 1004.90 1005.02 1004.74 1004.39 1004.03 1004.17 1004.86 1005.11 1005.22 1005.39 1005.61
1015.99 1015.71 1015.47 1015.22 1014.97 1014.69 1014.40 1014.07 1013.72 1013.30 1012.80 1012.40 1012.52 1012.02 1010.04 1008.06 1007.53 1007.45 1007.23 1007.02 1006.99 1006.49 1005.80 1005.78 1005.35 1004.96 1004.24 1004.17 1004.53 1004.31 1004.41 1004.17 1004.23 1004.42 1004.72 1004.96 1004.54 1003.18 1003.50 1004.00 1004.64 1004.76 1004.77 1005.26 1005.84
1016.00 1015.65 1015.34 1015.08 1014.82 1014.53 1014.22 1013.89 1013.50 1013.04 1012.51 1012.22 1012.32 1011.55 1008.63 1007.76 1007.53 1007.32 1007.05 1006.74 1006.86 1006.72 1006.57 1006.46 1005.93 1005.04 1004.79 1004.52 1004.71 1004.20 1003.96 1002.90 1003.33 1003.80 1004.19 1004.97 1003.99 1002.99 1003.29 1003.59 1003.89 1004.05 1004.43 1005.16 1005.87
1015.97 1015.64 1015.30 1014.99 1014.70 1014.39 1014.06 1013.68 1013.20 1012.79 1012.33 1011.94 1011.54 1010.29 1007.76 1008.25 1007.60 1007.38 1007.14 1006.86 1006.86 1006.82 1006.73 1006.75 1006.35 1005.22 1004.83 1004.54 1003.79 1003.41 1002.52 1002.55 1002.61 1002.80 1003.43 1003.84 1003.47 1003.14 1003.11 1002.97 1003.26 1003.66 1004.08 1004.95 1005.89
1015.90 1015.53 1015.18 1014.86 1014.57 1014.28 1013.94 1013.68 1013.04 1012.65 1011.62 1011.03 1010.17 1009.16 1007.40 1007.01 1007.26 1007.53 1007.37 1007.35 1006.70 1006.34 1006.07 1006.27 1005.58 1004.80 1004.33 1003.97 1004.06 1004.01 1003.69 1003.63 1003.38 1003.15 1003.28 1003.62 1003.63 1003.32 1003.14 1003.09 1003.04 1003.28 1003.94 1005.04 1006.14
1015.83 1015.44 1015.05 1014.69 1014.45 1014.22 1013.45 1012.97 1012.80 1011.69 1010.46 1008.77 1007.75 1007.29 1006.94 1007.22 1007.65 1007.21 1007.21 1006.82 1006.31 1005.89 1005.01 1005.00 1004.70 1004.32 1004.79 1005.39 1005.44 1005.07 1004.62 1004.16 1003.71 1003.46 1003.85 1003.92 1003.67 1003.45 1003.06 1002.69 1002.62 1003.13 1004.11 1005.38 1006.45
1015.85 1015.34 1014.86 1014.49 1014.34 1014.16 1013.94 1011.63 1010.04 1009.63 1008.56 1007.72 1007.62 1007.33 1007.01 1006.97 1006.79 1006.92 1007.17 1006.52 1006.06 1005.18 1005.34 1004.91 1004.17 1005.02 1005.64 1005.76 1005.72 1005.35 1004.91 1004.41 1004.30 1004.35 1004.87 1004.44 1003.82 1003.13 1002.38 1002.33 1003.03 1003.89 1004.91 1005.76 1006.50
1015.81 1015.27 1014.79 1014.36 1013.97 1013.67 1011.54 1010.35 1009.53 1009.05 1008.31 1006.99 1007.06 1006.71 1006.97 1006.97 1006.37 1006.54 1006.94 1006.40 1006.08 1005.67 1005.17 1005.14 1004.80 1005.66 1006.01 1005.94 1005.68 1005.54 1005.33 1005.54 1005.69 1005.53 1005.40 1004.40 1003.44 1002.72 1002.27 1002.63 1003.64 1004.50 1005.20 1005.94 1006.38
1015.79 1015.18 1014.69 1014.33 1013.83 1010.52 1009.89 1009.72 1009.08 1009.32 1008.18 1006.53 1006.62 1006.17 1006.74 1006.70 1006.71 1007.07 1007.08 1007.09 1006.19 1005.86 1005.86 1005.50 1005.31 1005.94 1006.18 1005.95 1005.95 1006.10 1006.28 1006.57 1006.46 1006.28 1005.49 1005.25 1003.37 1002.17 1002.04 1002.91 1003.20 1003.93 1004.79 1005.39 1006.09
1015.74 1015.05 1014.52 1014.52 1012.79 1010.29 1010.13 1009.42 1009.38 1009.48 1007.26 1006.35 1005.88 1006.02 1005.93 1006.33 1006.46 1006.98 1007.32 1007.01 1006.70 1006.29 1006.48 1005.68 1005.77 1005.95 1006.25 1006.38 1006.91 1007.14 1007.36 1007.51 1007.01 1006.21 1005.42 1004.34 1003.50 1002.47 1002.68 1002.51 1002.84 1003.67 1004.41 1005.37 1006.23
1015.65 1014.98 1014.55 1012.67 1012.22 1010.09 1009.70 1009.66 1009.69 1008.93 1006.55 1005.63 1005.62 1006.00 1006.16 1006.21 1006.38 1006.69 1007.10 1007.51 1007.22 1007.12 1006.78 1006.36 1006.28 1006.70 1006.88 1007.25 1007.41 1007.31 1007.60 1007.22 1006.63 1005.50 1004.87 1004.22 1004.54 1004.03 1003.57 1003.92 1003.94 1004.54 1005.38 1006.40 1006.89
1015.49 1014.83 1014.53 1012.43 1010.81 1010.20 1010.09 1009.52 1008.92 1007.17 1006.01 1005.47 1005.48 1005.76 1005.81 1005.64 1006.42 1006.88 1007.04 1007.16 1007.09 1007.42 1006.54 1006.09 1006.03 1006.78 1007.58 1007.64 1007.45 1007.56 1007.97 1007.47 1006.84 1006.18 1005.74 1005.72 1005.78 1006.47 1005.78 1005.97 1006.52 1006.96 1007.58 1008.30 1008.93
1015.23 1014.75 1012.92 1011.54 1010.85 1010.71 1010.37 1009.55 1008.40 1006.19 1005.72 1006.22 1006.10 1005.91 1005.99 1005.91 1006.68 1007.07 1007.58 1007.34 1007.71 1008.40 1007.95 1007.30 1006.95 1007.04 1007.78 1008.28 1008.44 1008.38 1008.63 1008.46 1007.84 1007.83 1007.31 1007.62 1006.50 1008.03 1007.75 1007.94 1008.34 1009.16 1009.92 1010.56 1011.54
1014.77 1013.26 1012.06 1010.98 1011.19 1011.09 1010.49 1008.90 1007.43 1007.30 1007.14 1007.06 1006.59 1006.56 1006.14 1006.36 1007.47 1007.38 1007.53 1007.53 1008.40 1009.57 1009.84 1009.02 1008.26 1008.15 1008.31 1008.32 1009.07 1008.81 1009.06 1008.95 1009.14 1009.46 1008.44 1007.64 1007.13 1006.67 1007.78 1008.49 1009.30 1010.15 1011.27 1011.95 1012.39
1014.70 1011.93 1010.72 1010.98 1011.00 1011.10 1010.39 1008.81 1007.82 1008.31 1008.53 1008.01 1007.64 1006.83 1006.39 1006.07 1007.15 1007.36 1007.67 1008.63 1009.50 1010.66 1011.24 1010.89 1010.48 1009.42 1008.78 1009.31 1009.40 1008.94 1009.06 1009.51 1010.18 1009.95 1009.12 1008.23 1007.97 1007.40 1007.85 1008.80 1009.80 1010.41 1011.49 1012.32 1013.22
1014.31 1011.35 1010.79 1010.73 1010.68 1010.61 1009.49 1008.33 1008.48 1008.95 1009.50 1009.03 1008.40 1007.98 1007.84 1007.71 1007.81 1008.26 1008.35 1009.67 1010.61 1011.30 1012.17 1012.25 1011.85 1010.73 1010.04 1009.24 1008.57 1008.72 1008.88 1009.43 1010.10 1010.75 1010.38 1009.52 1008.85 1008.94 1009.17 1009.19 1010.52 1011.26 1011.57 1012.76 1013.63
1013.86 1011.00 1010.70 1010.50 1010.40 1009.35 1008.93 1009.77 1010.70 1009.68 1009.68 1009.69 1009.65 1009.47 1009.33 1009.21 1009.31 1009.33 1009.33 1010.80 1012.18 1012.66 1013.08 1013.63 1013.35 1012.34 1011.05 1009.88 1009.36 1009.90 1010.21 1010.56 1010.93 1011.26 1011.35 1010.92 1009.56 1009.37 1009.16 1009.78 1010.71 1010.97 1011.53 1012.65 1013.21
1014.61 1011.38 1010.47 1010.42 1010.02 1009.60 1009.73 1010.00 1010.38 1010.54 1010.18 1010.42 1010.11 1010.27 1010.30 1010.42 1010.54 1010.47 1010.49 1012.09 1012.88 1013.28 1014.52 1015.26 1014.49 1013.58 1011.67 1010.07 1010.16 1010.41 1010.02 1010.36 1010.70 1011.05 1011.12 1010.90 1009.78 1009.24 1009.08 1009.95 1010.70 1011.40 1012.29 1012.91 1013.18
1014.96 1012.00 1010.93 1010.87 1011.16 1011.60 1011.09 1010.76 1010.31 1011.14 1011.25 1011.47 1011.11 1011.12 1011.19 1010.97 1010.87 1011.15 1011.11 1011.99 1013.34 1014.16 1015.56 1016.19 1016.06 1014.91 1013.58 1012.18 1011.71 1010.89 1010.58 1010.44 1010.67 1010.83 1010.72 1010.46 1009.49 1009.47 1010.11 1010.83 1011.32 1011.84 1012.70 1012.98 1013.16
1015.12 1013.91 1014.15 1012.66 1012.13 1012.73 1012.40 1011.97 1011.34 1010.98 1011.69 1011.95 1011.57 1011.73 1011.66 1011.91 1011.35 1011.16 1011.32 1011.97 1012.99 1014.70 1015.43 1016.08 1015.94 1015.40 1014.45 1013.57 1012.61 1011.43 1010.53 1010.13 1009.94 1009.95 1010.07 1009.95 1009.65 1010.31 1010.89 1011.47 1011.88 1012.31 1012.59 1012.92 1013.20
1016.98 1016.24 1015.35 1014.31 1013.32 1013.33 1012.88 1012.33 1012.00 1011.70 1012.43 1012.10 1012.50 1012.31 1012.95 1013.15 1012.96 1012.70 1012.86 1013.25 1013.74 1014.29 1015.14 1015.78 1016.29 1016.11 1015.11 1013.96 1012.25 1010.88 1010.45 1010.16 1009.81 1009.59 1009.56 1009.66 1009.76 1010.20 1011.14 1011.95 1012.16 1012.70 1013.03 1013.22 1013.60
1018.15 1017.54 1016.81 1014.98 1013.69 1013.09 1012.59 1012.48 1012.80 1013.26 1013.19 1013.28 1013.43 1013.75 1013.75 1013.97 1014.21 1014.12 1014.22 1014.43 1014.65 1014.95 1015.40 1016.08 1016.70 1017.01 1015.67 1014.32 1013.53 1011.82 1010.21 1010.09 1010.04 1010.10 1010.31 1010.67 1011.08 1011.40 1012.25 1012.86 1013.20 1013.31 1013.50 1013.91 1014.00
Wind_Speed
10 10 10 10 10 10 10 10 10 10 10 12 13 12 12 13 16 7 3 5 6 10 8 14 9 11 13 13 7 11 10 13 17 3 13 11 4 8 4 11 5 6 8 8 8
11 11 10 10 10 10 10 10 10 10 10 11 12 12 12 11 12 3 1 5 9 8 10 14 7 7 12 5 3 9 10 9 14 14 12 8 3 9 5 7 6 5 6 10 11
11 11 10 10 10 10 10 10 10 11 11 11 12 11 10 11 14 8 3 8 10 11 14 15 5 12 8 4 2 10 5 6 7 10 9 9 7 3 7 6 13 10 9 11 12
12 11 10 10 10 10 10 10 10 11 12 13 13 11 11 9 2 7 6 11 13 12 17 7 10 8 7 2 3 2 5 8 9 7 4 5 9 6 5 9 10 8 9 10 11
12 11 11 11 10 10 10 11 11 11 11 13 13 11 9 9 8 8 9 15 18 18 18 14 10 2 4 2 4 2 3 2 3 2 3 7 7 10 8 8 4 7 8 10 10
11 11 11 10 10 10 10 10 11 12 12 12 11 14 8 13 3 1 5 10 9 9 6 5 4 9 2 1 6 5 3 4 4 4 2 7 11 11 10 8 1 8 10 7 8
11 10 10 10 10 10 10 11 12 13 13 13 8 7 14 10 3 2 6 5 4 9 6 6 9 8 3 5 0 5 9 9 8 6 3 4 15 11 13 7 5 11 11 4 6
11 10 10 9 10 11 11 12 13 14 14 12 6 9 2 4 7 8 4 3 2 1 6 6 11 8 6 4 6 11 14 14 14 13 8 5 9 4 5 9 12 10 7 4 5
12 10 10 9 10 11 12 14 14 13 12 13 9 10 3 3 8 4 8 4 3 2 2 5 7 11 6 12 14 10 7 7 2 3 5 9 14 14 13 10 9 8 6 3 2
13 10 10 10 10 11 12 8 7 10 9 11 12 14 8 2 5 2 1 7 4 7 10 10 9 11 13 5 10 13 12 11 10 11 10 13 16 13 15 16 15 9 2 5 2
15 12 11 11 10 10 10 5 7 7 12 12 4 7 4 9 5 7 1 7 7 12 6 4 10 1 12 6 8 11 11 13 14 7 12 12 17 20 19 18 18 3 7 5 3
17 14 13 12 9 7 6 9 8 10 9 12 4 7 5 1 6 4 4 9 4 9 2 10 10 11 5 6 8 11 14 13 14 15 16 19 21 22 20 5 10 9 4 0 1
17 15 13 13 12 5 11 7 8 6 7 11 9 10 9 11 2 7 5 6 9 8 3 9 9 6 4 8 11 12 11 13 16 18 18 20 18 19 18 10 10 7 6 3 6
19 16 13 14 3 5 1 7 8 5 7 12 9 4 5 5 6 3 4 5 5 5 8 8 9 2 7 10 9 10 16 15 17 17 13 16 16 20 2 8 13 12 12 12 3
20 17 13 3 12 8 8 7 10 3 6 10 10 9 5 9 4 9 2 5 8 11 5 2 2 7 9 9 8 12 13 15 17 19 20 19 11 6 6 12 3 7 12 7 2
21 17 14 5 7 8 9 6 5 7 3 7 6 8 11 11 6 4 4 3 8 7 9 13 7 3 5 10 10 9 15 16 20 17 12 14 18 11 14 18 16 14 13 14 12
21 17 9 8 9 10 9 6 7 8 8 9 4 6 10 9 5 3 6 5 5 7 9 6 10 11 1 8 11 13 14 10 6 9 11 23 13 17 23 22 22 19 18 20 21
22 14 9 10 7 9 8 7 8 10 4 7 5 2 9 6 4 2 6 10 7 5 9 7 4 4 7 4 10 13 10 7 15 13 18 16 11 5 14 16 19 19 21 20 18
21 6 8 2 6 6 7 8 4 12 10 8 9 6 12 9 4 6 10 6 7 9 7 7 6 13 10 9 8 10 10 12 11 14 16 10 13 7 15 16 9 14 9 8 7
6 9 3 4 2 5 7 13 7 6 6 7 10 7 10 5 9 5 4 7 4 4 7 7 11 12 1 1 12 15 11 8 7 10 16 13 17 11 22 15 8 12 16 15 14
4 6 6 6 3 6 9 5 5 9 7 7 9 11 6 10 8 6 7 9 4 6 4 10 8 11 16 15 14 11 10 13 11 8 11 16 9 18 19 13 16 14 12 11 10
7 5 6 5 7 8 2 7 3 7 3 7 5 9 9 10 7 11 4 10 5 3 6 8 5 9 18 20 10 4 10 9 7 10 10 11 14 15 13 13 2 4 13 8 10
8 6 5 6 5 9 5 5 1 6 6 6 7 0 5 5 2 7 6 11 6 6 6 9 4 7 10 5 6 6 9 15 14 10 12 14 12 14 12 13 11 15 14 11 10
7 5 5 4 2 7 10 10 4 5 7 5 9 4 9 8 8 4 5 9 8 6 9 3 4 9 9 15 18 20 20 18 14 7 14 15 20 19 15 14 12 12 10 10 10
4 5 3 7 9 10 11 11 10 7 4 2 5 7 5 5 9 9 7 5 7 14 8 3 6 10 16 19 20 22 21 19 18 16 15 17 18 8 9 6 9 9 13 17 17
7 5 8 11 12 9 8 11 5 7 1 9 4 6 3 6 9 12 12 9 7 6 4 4 4 11 19 19 20 18 19 22 21 19 16 13 14 15 13 6 10 14 16 18 16
7 7 6 8 12 8 3 4 5 6 7 6 7 7 9 7 9 10 10 10 11 10 10 7 4 7 8 13 18 13 6 11 12 13 11 11 14 16 14 15 15 15 15 15 17
Wind_Direction
348 345 343 341 336 334 335 331 328 325 320 312 309 318 323 327 304 237 354 352 308 316 317 267 235 231 237 245 247 259 263 260 282 197 85 94 330 113 75 284 77 34 15 18 351
348 343 341 340 337 335 332 329 326 320 312 308 310 316 326 334 283 251 85 281 278 285 277 246 219 217 232 245 242 262 264 32 20 28 17 34 11 3 327 233 241 150 14 354 339
346 344 340 339 336 334 331 329 325 320 314 308 306 314 325 309 280 82 226 267 262 272 272 291 311 255 247 243 172 241 339 33 58 28 12 347 296 55 296 285 39 18 342 340 327
343 341 339 336 334 332 328 325 322 318 314 310 309 328 315 290 358 83 229 260 261 265 273 245 248 251 289 177 267 219 13 342 61 55 329 297 5 304 306 304 27 354 338 325 312
342 338 336 333 330 328 325 322 318 314 308 306 314 338 317 253 63 138 228 249 256 258 228 236 260 260 261 36 206 90 117 284 102 217 257 0 280 279 295 294 68 310 305 320 318
340 335 331 328 324 321 318 314 312 309 303 300 319 315 252 274 92 130 248 262 338 346 348 312 350 335 68 353 297 42 287 205 174 220 239 250 284 287 254 237 218 290 301 321 334
340 333 329 324 319 314 310 308 306 301 295 295 314 300 275 48 357 152 246 7 343 338 343 358 341 284 9 178 99 259 252 207 214 205 269 19 278 287 210 185 249 269 287 350 315
342 330 322 317 313 310 307 304 298 292 289 282 286 285 328 8 337 232 226 174 256 293 334 318 307 303 282 34 246 236 230 240 178 187 154 190 288 345 185 198 247 270 283 316 276
346 333 322 313 307 305 304 301 289 289 273 289 277 213 178 136 224 63 318 11 306 246 262 304 263 258 185 232 226 208 269 354 145 201 160 244 284 305 306 283 282 272 255 214 317
349 337 323 313 307 306 305 284 312 299 239 261 259 278 162 120 96 331 199 276 297 258 234 221 229 236 220 313 10 346 343 331 310 315 335 314 297 297 308 294 280 293 261 118 42
350 339 326 316 314 320 311 221 214 207 236 269 127 267 119 76 167 219 171 267 246 261 311 211 248 58 39 17 332 319 320 308 294 346 327 303 301 302 298 286 272 308 104 91 92
346 337 328 322 324 318 279 267 28 315 289 213 265 289 351 355 178 179 253 264 299 314 261 250 226 81 17 315 298 302 301 306 328 343 328 307 296 285 280 6 69 65 39 83 169
342 334 327 321 318 249 239 356 307 306 270 163 191 217 186 230 330 101 286 342 278 278 309 311 83 82 307 296 304 305 335 338 315 317 305 295 308 308 297 127 125 148 150 227 219
339 331 323 321 295 256 57 339 298 26 269 152 187 183 168 247 206 51 335 305 272 318 347 290 73 355 288 290 342 318 354 331 319 314 305 305 291 285 23 172 203 183 187 212 112
337 328 320 303 310 15 336 327 335 243 279 153 154 113 190 230 97 141 353 267 279 324 314 52 324 326 325 330 359 307 340 309 287 283 283 276 264 59 204 318 322 197 209 127 286
335 327 329 226 229 356 341 335 256 236 308 142 144 206 210 218 195 122 205 194 287 293 266 273 314 260 319 338 289 267 277 295 287 273 274 1 356 326 335 352 344 22 18 17 19
332 321 306 312 331 343 332 271 249 251 169 152 211 199 224 204 193 213 315 288 280 317 308 300 241 100 54 308 336 340 325 310 306 313 304 357 337 36 28 30 22 9 12 7 7
329 318 223 276 327 345 300 255 266 289 32 29 354 301 268 247 204 261 266 279 128 322 307 289 254 163 108 300 303 295 295 307 310 317 309 307 291 90 50 31 32 26 22 21 10
316 232 243 51 318 318 284 252 317 8 5 2 307 242 259 175 202 253 253 262 53 30 340 322 278 352 304 303 1 316 309 324 316 297 293 296 307 7 47 6 40 62 33 14 19
310 269 118 312 331 291 266 262 305 47 338 291 275 316 296 214 169 237 282 80 100 46 21 331 304 289 347 335 268 238 251 285 279 281 286 292 317 312 360 5 14 354 12 17 13
256 248 72 312 263 250 252 359 32 79 337 331 305 308 309 311 329 312 294 106 86 82 341 300 268 282 308 281 304 317 300 311 324 315 307 304 298 343 315 12 29 9 353 31 11
297 287 46 340 263 232 12 7 345 311 316 289 290 277 287 315 320 305 298 65 66 7 331 39 315 290 285 289 291 326 300 301 277 279 276 288 286 297 323 34 15 310 48 41 33
301 301 99 321 295 341 31 302 246 312 330 321 296 66 341 286 305 278 300 111 77 33 32 13 282 314 299 143 146 241 294 313 298 304 289 289 291 293 327 3 1 33 24 24 358
287 309 14 306 114 348 352 297 279 134 277 278 286 320 276 266 238 244 272 132 132 109 118 122 261 256 267 301 310 299 298 298 292 278 279 274 295 297 21 9 357 41 15 349 331
310 33 47 314 339 335 303 304 290 276 165 251 265 252 349 309 302 277 273 147 182 139 161 201 272 299 295 302 297 288 283 280 279 282 286 291 289 37 2 336 0 348 350 347 339
342 345 348 294 275 299 277 280 302 314 12 278 253 343 347 289 291 303 327 318 296 216 185 235 259 292 293 286 280 314 312 294 278 270 280 313 320 351 32 358 339 355 341 334 340
15 340 282 299 285 252 333 14 329 17 278 299 351 327 285 13 343 322 306 289 273 281 287 300 302 310 282 323 328 296 331 337 323 316 326 319 338 11 4 356 341 336 343 348 330